Location: 山口市
(34.1781°N, 131.4737°E)
Time: 07:52:56
(UTC+09:00)

Envisat - Pass Details

Date: 04 January 2022
Orbit: 764 x 765 km, 98.2° (Epoch: 24 June)

Event Time Altitude Azimuth Distance (km) Brightness Sun altitude
Rises 05:21:49 0° 8° (N) 3,237 6.2 -23.9°
Reaches altitude 10° 05:24:09 10° 5° (N) 2,307 5.4 -23.4°
Maximum altitude 05:29:10 63° 285° (WNW) 855 2.9 -22.4°
Drops below altitude 10° 05:34:09 10° 205° (SSW) 2,292 5.3 -21.4°
Sets 05:36:27 0° 202° (SSW) 3,214 6.1 -20.9°
